Date String (YYYY-MM-DD hh:mm:ss) UTC,Instrument flags,absolute air pressure of the measurement (hPa),sample flow rate (lpm),inlet stack bypass flow (lpm),air temperature of the measurement (°C),ambient temperature measured by the external sensor (°C),aerosol sample conditioner tube jacket temperature (°C),OPC LED temperature (°C),internal box temperature (°C),relative humidity of the measurement (%),span deviation,mass concentration of particles derived from Lorenz-Mie calculation of OPC scattering (μg/m³),mass concentration of particles derived from Lorenz-Mie calculation of OPC scattering (μg/m³),mass concentration of particles derived from Lorenz-Mie calculation of OPC scattering (μg/m³)
DateTimeUTC,F1_M11,P_M11,Q1_M11,Q2_M11,T1_M11,T2_M11,T3_M11,T4_M11,T5_M11,U1_M11,ZSPAN_M11,X0_M11,X2_M11,X1_M11
2023-12-05 07:00:00,SystemResetWarning,0833.9,5.01,000.00,022.0,021.1,000.0,030.4,023.2,18.6,0000.0,0008.43,0001.74,0001.26
2023-12-05 07:01:00,SystemResetWarning,0833.9,5.00,000.00,022.0,021.1,000.0,030.4,023.2,18.6,0000.0,0007.91,0001.76,0001.28
2023-12-05 07:02:00,SystemResetWarning,0833.9,5.01,000.00,022.0,021.1,000.0,030.4,023.2,18.6,0000.0,0007.55,0001.76,0001.28
2023-12-05 07:03:00,SystemResetWarning,0833.9,4.99,000.00,022.0,021.1,000.0,030.4,023.2,18.7,0000.0,0006.33,0001.75,0001.28
2023-12-05 07:04:00,SystemResetWarning,0833.9,4.99,000.00,022.0,021.1,000.0,030.4,023.2,18.7,0000.0,0006.47,0001.78,0001.29
2023-12-05 07:05:00,SystemResetWarning,0833.9,5.00,000.00,022.0,021.1,000.0,030.4,023.2,18.7,0000.0,0007.03,0001.82,0001.29
2023-12-05 07:06:00,SystemResetWarning,0833.9,4.99,000.00,022.0,021.1,000.0,030.4,023.2,18.7,0000.0,0006.44,0001.76,0001.28
2023-12-05 07:07:00,SystemResetWarning,0834.0,5.00,000.00,022.0,021.1,000.0,030.4,023.2,18.7,0000.0,0005.62,0001.72,0001.28
2023-12-05 07:08:00,SystemResetWarning,0833.9,5.01,000.00,022.0,021.1,000.0,030.4,023.2,18.7,0000.0,0005.67,0001.71,0001.28
2023-12-05 07:09:00,SystemResetWarning,0834.0,5.01,000.00,022.0,021.1,000.0,030.4,023.2,18.8,0000.0,0004.62,0001.73,0001.28
2023-12-05 07:10:00,SystemResetWarning,0834.0,5.00,000.00,022.0,021.1,000.0,030.4,023.2,18.7,0000.0,0004.56,0001.75,0001.28
2023-12-05 07:11:00,SystemResetWarning,0834.0,5.00,000.00,022.0,021.1,000.0,030.3,023.2,18.6,0000.0,0005.12,0001.76,0001.28
2023-12-05 07:12:00,SystemResetWarning,0834.0,4.99,000.00,022.0,021.1,000.0,030.3,023.2,18.5,0000.0,0005.05,0001.74,0001.27
2023-12-05 07:13:00,SystemResetWarning,0834.0,5.00,000.00,022.0,021.1,000.0,030.3,023.3,18.4,0000.0,0005.01,0001.72,0001.28
2023-12-05 07:14:00,SystemResetWarning,0834.0,4.99,000.00,022.0,021.1,000.0,030.3,023.2,18.4,0000.0,0005.59,0001.75,0001.29
2023-12-05 07:15:00,SystemResetWarning,0834.0,5.00,000.00,022.0,021.1,000.0,030.3,023.2,18.4,0000.0,0005.68,0001.76,0001.28
2023-12-05 07:16:00,SystemResetWarning,0834.0,5.00,000.00,022.0,021.1,000.0,030.3,023.3,18.4,0000.0,0004.99,0001.75,0001.29
2023-12-05 07:17:00,SystemResetWarning,0834.0,5.00,000.00,022.0,021.1,000.0,030.3,023.2,18.4,0000.0,0004.90,0001.74,0001.30
2023-12-05 07:18:00,SystemResetWarning,0834.1,5.00,000.00,022.0,021.1,000.0,030.3,023.2,18.4,0000.0,0005.33,0001.77,0001.30
2023-12-05 07:19:00,SystemResetWarning,0834.2,5.00,000.00,022.0,021.1,000.0,030.3,023.2,18.4,0000.0,0005.47,0001.77,0001.30
2023-12-05 07:20:00,SystemResetWarning,0834.2,5.00,000.00,022.0,021.1,000.0,030.3,023.2,18.4,0000.0,0005.55,0001.78,0001.31
2023-12-05 07:21:00,SystemResetWarning,0834.1,4.99,000.00,022.0,021.1,000.0,030.3,023.2,18.4,0000.0,0005.20,0001.79,0001.32
2023-12-05 07:22:00,SystemResetWarning,0834.1,4.99,000.00,022.0,021.1,000.0,030.3,023.2,18.4,0000.0,0004.53,0001.79,0001.35
2023-12-05 07:23:00,SystemResetWarning,0834.3,5.00,000.00,022.0,021.1,000.0,030.3,023.2,18.4,0000.0,0004.87,0001.92,0001.37
2023-12-05 07:24:00,SystemResetWarning,0834.3,5.01,000.00,022.0,021.1,000.0,030.3,023.2,18.4,0000.0,0005.25,0001.99,0001.40
2023-12-05 07:25:00,SystemResetWarning,0834.2,5.01,000.00,022.0,021.1,000.0,030.3,023.2,18.5,0000.0,0006.15,0002.06,0001.42
2023-12-05 07:26:00,SystemResetWarning,0834.2,4.99,000.00,022.0,021.1,000.0,030.3,023.2,18.5,0000.0,0005.76,0002.05,0001.44
2023-12-05 07:27:00,SystemResetWarning,0834.2,4.99,000.00,022.0,021.1,000.0,030.3,023.2,18.6,0000.0,0005.68,0002.05,0001.45
2023-12-05 07:28:00,SystemResetWarning,0834.2,5.00,000.00,022.0,021.1,000.0,030.3,023.3,18.6,0000.0,0005.82,0002.08,0001.46
2023-12-05 07:29:00,SystemResetWarning,0834.4,4.99,000.00,022.0,021.1,000.0,030.3,023.2,18.5,0000.0,0005.39,0002.08,0001.47
2023-12-05 07:30:00,SystemResetWarning,0834.4,5.00,000.00,022.0,021.1,000.0,030.3,023.2,18.5,0000.0,0005.15,0002.12,0001.49
2023-12-05 07:31:00,SystemResetWarning,0834.2,5.01,000.00,022.0,021.1,000.0,030.3,023.3,18.6,0000.0,0005.10,0002.13,0001.51
2023-12-05 07:32:00,SystemResetWarning,0834.3,5.00,000.00,022.0,021.1,000.0,030.3,023.2,18.6,0000.0,0005.08,0002.12,0001.51
2023-12-05 07:33:00,SystemResetWarning,0834.3,5.00,000.00,022.0,021.1,000.0,030.3,023.2,18.6,0000.0,0005.58,0002.14,0001.51
2023-12-05 07:34:00,SystemResetWarning,0834.4,5.01,000.00,022.0,021.1,000.0,030.3,023.2,18.7,0000.0,0005.44,0002.05,0001.50
2023-12-05 07:35:00,SystemResetWarning,0834.2,5.01,000.00,022.0,021.1,000.0,030.3,023.2,18.7,0000.0,0005.45,0002.07,0001.50
2023-12-05 07:36:00,SystemResetWarning,0834.3,5.00,000.00,022.0,021.1,000.0,030.3,023.2,18.7,0000.0,0003.95,0002.03,0001.50
2023-12-05 07:37:00,SystemResetWarning,0834.3,5.00,000.00,022.0,021.0,000.0,030.3,023.2,18.8,0000.0,0004.14,0002.06,0001.50
2023-12-05 07:38:00,SystemResetWarning,0834.4,5.00,000.00,021.9,021.0,000.0,030.3,023.1,18.8,0000.0,0004.46,0002.10,0001.50
2023-12-05 07:39:00,SystemResetWarning,0834.3,5.00,000.00,021.9,021.0,000.0,030.3,023.1,18.8,0000.0,0004.43,0002.10,0001.49
2023-12-05 07:40:00,SystemResetWarning,0834.3,5.00,000.00,021.9,021.0,000.0,030.3,023.2,18.9,0000.0,0005.61,0002.14,0001.50
2023-12-05 07:41:00,SystemResetWarning,0834.2,5.00,000.00,021.9,021.0,000.0,030.3,023.2,18.9,0000.0,0005.76,0002.12,0001.50
2023-12-05 07:42:00,SystemResetWarning,0834.1,5.01,000.00,021.9,021.0,000.0,030.3,023.2,18.9,0000.0,0005.85,0002.15,0001.49
2023-12-05 07:43:00,SystemResetWarning,0834.2,5.00,000.00,021.9,021.0,000.0,030.3,023.2,18.9,0000.0,0007.47,0002.22,0001.50
2023-12-05 07:44:00,SystemResetWarning,0834.4,5.00,000.00,021.9,021.0,000.0,030.3,023.1,18.9,0000.0,0007.15,0002.19,0001.50
2023-12-05 07:45:00,SystemResetWarning,0834.2,5.00,000.00,021.9,021.0,000.0,030.3,023.2,18.9,0000.0,0007.81,0002.15,0001.49
2023-12-05 07:46:00,SystemResetWarning,0834.1,5.00,000.00,021.9,021.0,000.0,030.3,023.1,18.9,0000.0,0008.02,0002.13,0001.49
2023-12-05 07:47:00,SystemResetWarning,0834.1,4.99,000.00,021.9,021.0,000.0,030.3,023.1,19.0,0000.0,0007.99,0002.12,0001.49
2023-12-05 07:48:00,SystemResetWarning,0834.2,4.99,000.00,021.9,021.0,000.0,030.2,023.2,19.0,0000.0,0007.85,0002.06,0001.49
2023-12-05 07:49:00,SystemResetWarning,0834.3,4.99,000.00,021.9,021.0,000.0,030.2,023.2,19.0,0000.0,0007.73,0002.05,0001.50
2023-12-05 07:50:00,SystemResetWarning,0834.2,5.00,000.00,021.9,021.0,000.0,030.2,023.1,19.0,0000.0,0007.80,0002.06,0001.51
2023-12-05 07:51:00,SystemResetWarning,0834.1,5.01,000.00,021.9,021.0,000.0,030.2,023.1,19.1,0000.0,0007.04,0002.08,0001.50
2023-12-05 07:52:00,SystemResetWarning,0834.2,5.01,000.00,021.9,021.0,000.0,030.2,023.1,19.1,0000.0,0006.89,0002.09,0001.51
2023-12-05 07:53:00,SystemResetWarning,0834.2,5.00,000.00,021.9,021.0,000.0,030.2,023.1,19.1,0000.0,0006.62,0002.06,0001.50
2023-12-05 07:54:00,SystemResetWarning,0834.1,5.00,000.00,021.9,021.0,000.0,030.2,023.2,19.1,0000.0,0004.98,0001.98,0001.49
2023-12-05 07:55:00,SystemResetWarning,0834.2,4.99,000.00,021.9,021.0,000.0,030.2,023.1,19.1,0000.0,0005.13,0002.01,0001.50
2023-12-05 07:56:00,SystemResetWarning,0834.2,5.01,000.00,021.9,021.0,000.0,030.2,023.1,19.0,0000.0,0003.88,0002.07,0001.51
2023-12-05 07:57:00,SystemResetWarning,0834.2,5.01,000.00,021.9,021.0,000.0,030.2,023.1,18.9,0000.0,0004.02,0002.10,0001.51
2023-12-05 07:58:00,SystemResetWarning,0834.2,5.01,000.00,021.9,021.0,000.0,030.2,023.1,18.9,0000.0,0005.00,0002.14,0001.51
2023-12-05 07:59:00,SystemResetWarning,0834.1,4.99,000.00,021.9,021.0,000.0,030.2,023.1,18.9,0000.0,0005.92,0002.20,0001.50
